Location: Rimrock Meadows
(47.4808°N, 119.7286°W)
Time: 03:11:08
(UTC-07:00)

Daily predictions for brighter satellites

Satellite Brightness Start Highest point End
(mag) Time Altitude Azimuth Time Altitude Azimuth Time Altitude Azimuth
CZ-4B R/B 2.8 00:04:41 30° NE 00:04:41 30° NE 00:06:58 10° N
Cosmos 1503 Rocket 4.3 00:00:53 10° NNW 00:06:01 56° WSW 00:07:08 46° SSW
Cosmos 1315 Rocket 2.7 00:10:39 79° WNW 00:10:39 79° WNW 00:14:36 10° N
Meteor 2-4 Rocket 3.9 00:05:22 10° NNW 00:10:44 59° W 00:12:15 43° SSW
Lacrosse 5 rocket 1.4 00:14:31 59° WNW 00:14:52 63° NW 00:18:33 10° NE
Cosmos 1025 Rocket 4.0 00:11:06 10° NNW 00:15:08 36° W 00:15:50 34° WSW
Cosmos 1602 Rocket 3.8 00:10:47 10° N 00:15:11 56° ENE 00:15:32 54° E
Okean 2 3.5 00:13:28 10° NNW 00:17:37 62° W 00:17:45 61° WSW
Cosmos 2263 4.1 00:17:25 55° SSE 00:18:29 67° ESE 00:24:07 10° NNE
Cosmos 1626 Rocket 3.7 00:15:01 10° N 00:19:29 62° E 00:19:47 60° E
Cosmos 968 Rocket 4.1 00:16:17 10° NNW 00:21:24 50° ENE 00:22:50 39° ESE
BREEZE-M DEB (TANK) 2.7 00:18:30 10° WNW 00:21:24 89° SSW 00:30:21 10° ESE
NOSS 3-1 (A) 4.4 00:17:34 10° NW 00:24:48 50° WSW 00:27:27 38° SSW
Cosmos 1605 Rocket 4.0 00:22:47 42° SSW 00:25:06 79° W 00:31:33 10° N
Cosmos 1455 Rocket 2.9 00:25:00 80° SW 00:25:13 85° W 00:29:35 10° N
Cosmos 375 4.3 00:22:58 10° NW 00:26:52 76° NW 00:26:52 76° NW
Cosmos 1346 Rocket 2.8 00:24:21 10° N 00:27:58 75° N 00:27:58 75° N
ALOS 2 2.4 00:29:35 76° SW 00:29:47 79° WSW 00:34:12 10° NNW
Cosmos 1689 Rocket 3.4 00:31:42 43° N 00:31:42 43° N 00:33:59 10° N
Meteor 1-12 Rocket 4.3 00:30:48 53° SE 00:31:52 63° E 00:37:27 10° NNE
Cosmos 2285 Rocket 4.3 00:32:00 32° SW 00:35:03 66° WNW 00:41:27 10° NNE
SL-8 R/B 3.9 00:31:01 10° WNW 00:35:03 53° WSW 00:35:03 53° WSW
Cosmos 1833 4.1 00:32:13 10° NNW 00:37:51 85° WSW 00:39:02 58° SSE
CZ-2C R/B 3.9 00:37:06 31° ESE 00:38:26 37° ENE 00:42:53 10° N
Cosmos 2173 Rocket 4.2 00:39:02 45° SE 00:40:40 59° E 00:46:55 10° NNE
Cosmos 1633 4.4 00:43:07 22° W 00:43:34 23° WNW 00:46:36 10° NNW
ISS -1.9 00:40:29 10° WNW 00:43:20 38° N 00:43:20 38° N
Cosmos 1153 Rocket 4.5 00:42:04 47° SSW 00:44:05 81° W 00:50:26 10° N
Helios 1A Rocket 3.6 00:40:40 10° NNE 00:44:16 44° E 00:44:16 44° E
ATLAS 2AS CENTAUR R/B 3.0 00:38:06 10° NW 00:46:18 81° SW 00:49:31 40° SSE
Cosmos 1743 4.2 00:51:18 28° ENE 00:51:18 28° ENE 00:54:09 10° NNE
Cosmos 2369 Rocket 2.8 00:50:20 30° WSW 00:52:55 53° WNW 00:58:25 10° NNE
CZ-2C R/B 2.8 00:50:21 10° NNE 00:55:30 54° E 00:56:10 50° SE
USA 234 3.5 00:49:33 10° NE 00:56:04 69° NNW 01:02:32 10° WSW
Cosmos 1818 3.5 00:56:30 58° SSW 00:57:37 88° SE 01:03:09 10° NE
Landsat 5 3.8 00:59:28 56° W 00:59:28 56° W 01:03:29 10° NNW
Cosmos 1992 Rocket 4.3 01:00:40 44° WSW 01:02:02 59° WNW 01:07:13 10° NNE
Cosmos 1975 3.0 01:03:22 68° NW 01:03:22 68° NW 01:07:15 10° N
Cosmos 2219 3.1 00:58:05 10° NNW 01:03:46 82° ENE 01:05:08 54° SE
Cosmos 2227 Rocket 3.8 00:59:40 10° NNW 01:04:38 30° NE 01:09:13 11° ESE
Cosmos 1066 Rocket 4.0 01:01:05 10° NNW 01:06:29 89° WSW 01:07:25 63° S
Cosmos 1777 Rocket 4.0 01:02:55 10° NNW 01:08:09 73° ENE 01:09:13 55° SE
H-2A R/B 3.1 01:05:55 10° N 01:10:21 53° WNW 01:10:55 50° W
Tsikada Rocket 4.3 01:04:57 10° N 01:11:11 59° ENE 01:13:26 39° SE
Cosmos 1656 Rocket 3.9 01:12:17 50° SE 01:13:01 54° ESE 01:18:30 10° NE
Cosmos 1666 4.4 01:15:43 24° E 01:15:43 24° E 01:18:29 10° NE
GP-B 3.2 01:12:14 10° N 01:16:38 62° W 01:16:47 62° W
Cosmos 1500 3.6 01:23:29 60° NW 01:23:29 60° NW 01:26:52 10° N
Cosmos 1943 Rocket 2.3 01:22:42 46° WSW 01:24:17 67° WNW 01:29:55 10° NNE
Cosmos 2058 Rocket 3.9 01:24:19 38° E 01:24:33 39° E 01:28:42 10° NNE
Cosmos 2297 Rocket 3.8 01:20:47 10° NNW 01:25:47 31° NE 01:30:45 10° ESE
Cosmos 1953 Rocket 3.4 01:22:29 10° N 01:26:51 77° E 01:26:57 76° E
Lacrosse 5 3.1 01:22:52 10° W 01:27:43 41° NNW 01:32:33 10° NE
Cosmos 44 Rocket 3.8 01:24:10 10° NW 01:28:46 46° WSW 01:28:46 46° WSW
ATLAS CENTAUR R/B 4.1 01:29:30 11° ESE 01:29:33 11° ESE 01:31:08 10° E
SL-08 R/B 4.5 01:34:17 49° S 01:36:11 89° W 01:42:36 10° N
Cosmos 1825 Rocket 3.6 01:32:04 10° NNW 01:36:30 64° W 01:36:32 64° W
Cosmos 1726 Rocket 3.5 01:36:43 67° ESE 01:36:48 67° E 01:41:06 10° NNE
CZ-4B R/B 4.1 01:38:26 11° WNW 01:38:26 11° WNW 01:38:45 10° WNW
SeaSat 1 2.9 01:37:46 32° ESE 01:39:52 57° NE 01:44:43 10° NNW
Cosmos 1758 Rocket 3.5 01:46:03 10° NNW 01:50:33 73° W 01:50:44 71° WSW
Lacrosse 5 rocket 3.5 01:51:42 10° WNW 01:54:39 22° NNW 01:57:34 10° NE
Cosmos 44 3.5 01:54:44 10° NW 01:59:49 54° WSW 01:59:52 54° WSW
Cosmos 2233 Rocket 4.0 02:01:05 44° S 02:03:08 76° E 02:09:16 10° NNE
Meteor 2-17 Rocket 4.5 02:02:33 43° SSE 02:04:37 73° E 02:10:44 10° NNE
GENESIS II 4.3 02:06:58 72° ESE 02:06:58 72° ESE 02:11:03 10° NE
Cosmos 1898 Rocket 4.1 02:02:36 10° NNW 02:07:53 56° ENE 02:10:56 25° SE
NOSS 3-4 (A) 4.1 02:02:33 10° NW 02:09:24 64° NE 02:16:39 10° SE
NOSS 3-4 (C) 4.1 02:02:40 10° NW 02:09:32 64° NE 02:16:49 10° SE
Cosmos 1570 Rocket 4.0 02:11:47 52° SW 02:13:08 81° WNW 02:18:30 10° NNE
BREEZE-M DEB (TANK) 3.6 01:59:11 10° WNW 02:13:54 63° SW 02:15:51 35° SSE
Cosmos 1937 Rocket 4.3 02:12:27 10° NNW 02:17:29 48° ENE 02:21:16 17° SE
Cosmos 1707 4.2 02:14:19 10° N 02:17:55 32° ENE 02:19:22 25° ESE
CZ-2C R/B 4.0 02:18:10 30° W 02:18:22 30° W 02:22:39 10° NW
NOSS 3-3 (A) 4.1 02:16:12 36° SW 02:19:00 77° NW 02:25:53 10° NE
NOSS 3-3 (C) 4.1 02:16:17 37° SW 02:19:04 78° NW 02:25:58 10° NE
BREEZE-M DEB (TANK) 3.2 02:19:27 53° SE 02:19:27 53° SE 02:22:42 10° ENE
Cosmos 2228 2.8 02:19:03 70° SSW 02:19:31 82° W 02:23:50 10° N
SL-08 R/B 3.9 02:18:16 28° SE 02:20:28 51° ENE 02:24:58 10° N
UNK 3.4 02:11:32 10° WSW 02:20:47 79° NNW 02:23:47 10° ENE
Cosmos 1340 3.6 02:20:43 10° NNW 02:23:43 35° WNW 02:23:43 35° WNW
Cosmos 1743 4.3 02:26:27 23° WNW 02:26:38 23° WNW 02:29:48 10° NNW
USA 161 4.4 02:29:33 11° E 02:30:56 14° ENE 02:32:29 10° NNE
IRS-P3 4.4 02:26:02 10° NNE 02:31:21 59° E 02:33:23 36° SSE
CZ-2C R/B 4.2 02:31:17 10° N 02:35:28 25° WNW 02:37:42 19° W
ATLAS 2AS CENTAUR R/B 4.2 02:30:36 10° WNW 02:36:09 21° WSW 02:36:54 21° WSW
ARIANE 5 R/B 4.5 02:32:35 10° NE 02:36:28 21° E 02:40:03 11° SE
Cosmos 1697 Rocket 4.1 02:34:48 20° SE 02:37:27 29° ESE 02:42:13 10° NE
USA 234 4.5 02:32:30 10° ENE 02:38:33 41° N 02:44:34 10° WNW
Cosmos 2082 3.6 02:34:05 10° NNW 02:39:42 68° WSW 02:41:56 37° S
Cosmos 1980 Rocket 4.1 02:43:10 13° SE 02:46:35 21° E 02:50:44 10° NE
Cosmos 2227 Rocket 2.3 02:43:28 10° NW 02:49:01 55° WSW 02:50:59 37° SSW
Resurs 1-4 Rocket 4.0 02:46:28 10° NE 02:50:32 22° E 02:54:34 10° SE
Cosmos 1666 4.0 02:50:43 26° W 02:51:00 26° WNW 02:54:15 10° NNW
Cosmos 1812 Rocket 3.6 02:57:46 45° SSW 02:59:03 71° W 03:03:32 10° N
Cosmos 1814 Rocket 4.2 03:00:12 33° S 03:02:36 71° ESE 03:07:57 10° NNE
CBERS-1 4.0 02:58:00 10° NNE 03:03:11 79° ESE 03:05:35 32° S
Cosmos 2034 Rocket 4.0 03:01:30 27° S 03:05:08 79° E 03:11:20 10° N
BREEZE-M DEB (TANK) 3.9 03:01:30 10° WNW 03:05:04 24° W 03:05:04 24° W
NPP 3.6 03:01:12 10° NNE 03:06:38 85° WNW 03:09:14 32° SSW
Cosmos 2298 Rocket 4.4 03:02:42 10° NNW 03:07:44 44° WSW 03:09:23 34° SSW
ATLAS CENTAUR R/B 1.9 03:05:51 36° SSW 03:07:50 71° SE 03:12:49 10° NE
Nadezhda 4 Rocket 4.2 03:01:44 10° N 03:07:56 72° E 03:13:26 14° SSE
Meteor 2-5 Rocket 3.9 03:02:57 10° NNW 03:08:46 63° W 03:11:52 28° SSW
Cosmos 1943 Rocket 4.4 03:05:48 10° WNW 03:09:11 16° NW 03:12:36 10° N
Cosmos 1378 3.9 03:06:23 10° N 03:10:06 50° ENE 03:12:32 20° SSE
Cosmos 2297 Rocket 2.3 03:04:37 10° NW 03:10:07 52° WSW 03:12:50 28° S
Lacrosse 5 3.9 03:07:21 10° WNW 03:11:44 28° N 03:16:07 10° ENE
Cosmos 2278 3.9 03:09:29 31° SW 03:12:13 65° WNW 03:17:54 10° NNE
Cosmos 405 Rocket 3.1 03:08:36 10° NNW 03:12:32 47° W 03:13:18 41° SW
Cosmos 2369 3.8 03:11:33 31° SW 03:14:19 70° WNW 03:20:01 10° NNE
Landsat 4 4.5 03:15:28 34° WSW 03:15:41 34° W 03:19:14 10° NNW
SeaSat 1 3.6 03:17:34 24° WSW 03:17:40 24° WSW 03:21:40 10° NW
Cosmos 990 Rocket 3.9 03:14:26 10° NNW 03:19:42 73° WSW 03:23:40 18° S
SL-16 R/B 2.8 03:14:11 10° SSE 03:20:18 70° ENE 03:26:26 10° N
Cosmos 1461 4.1 03:17:45 10° NNW 03:21:49 43° NE 03:25:41 10° ESE
AQUA 3.9 03:19:36 10° N 03:24:20 68° WNW 03:26:39 30° SSW
ERS-2 2.1 03:20:47 10° NNE 03:24:32 82° ESE 03:26:03 35° S
Cosmos 468 Rocket 4.1 03:23:55 29° SW 03:26:29 66° WNW 03:31:38 10° NNE
Cosmos 1766 3.5 03:25:21 27° S 03:27:22 67° E 03:31:19 10° NNE
NOSS 2-1 (D) 3.7 03:30:11 30° WSW 03:32:05 66° NW 03:36:49 10° NE
SL-16 R/B 4.4 03:29:34 10° SE 03:33:25 19° E 03:37:16 10° ENE
NOSS 2-1 (C) 3.7 03:31:34 29° WSW 03:33:30 66° NW 03:38:15 10° NE
Lacrosse 5 rocket 3.8 03:32:06 10° NW 03:34:53 20° N 03:37:40 10° ENE
Okean 3 Rocket 4.1 03:32:47 10° NNW 03:36:55 40° W 03:38:37 28° SW
UNKNOWN OBJECT B 4.2 03:36:31 10° NNE 03:40:05 33° E 03:43:29 10° SSE
Cosmos 2263 Rocket 4.4 03:36:15 10° N 03:41:02 28° NE 03:45:48 10° ESE
CZ-3A R/B 3.7 03:32:26 19° SW 03:41:18 63° SE 03:45:53 10° ENE
Cosmos 1437 3.9 03:39:12 10° N 03:42:26 45° ENE 03:45:39 10° SSE
BREEZE-M DEB (TANK) 1.7 03:41:26 30° WSW 03:42:37 69° S 03:46:14 10° E
Meteor 2-12 Rocket 4.4 03:40:16 20° SSW 03:44:39 79° W 03:50:46 10° N
Cosmos 1441 Rocket 3.2 03:41:54 10° NNW 03:45:53 68° W 03:48:40 19° S
Meteor 1-24 Rocket 4.0 03:40:49 10° NNW 03:46:21 53° W 03:50:47 17° SSW
NOSS 2-1 (E) 4.0 03:46:13 22° WSW 03:48:41 54° NW 03:53:32 10° NE
Cosmos 1656 3.9 03:46:36 22° SW 03:50:19 65° WNW 03:55:57 10° NNE
Cosmos 1634 Rocket 4.3 03:44:15 10° S 03:50:23 69° E 03:56:40 10° NNE
Cosmos 1076 Rocket 3.6 03:47:47 10° NNW 03:52:02 57° W 03:55:02 18° SSW
Meteor 1-22 Rocket 4.5 03:47:56 19° SSW 03:52:21 70° WNW 03:58:29 10° N
SL-24 R/B 4.3 03:49:18 15° S 03:53:07 57° WSW 03:57:30 10° NNW
Cosmos 1707 4.2 03:50:40 10° NW 03:53:41 21° W 03:54:36 20° WSW
EO 1 Del DPAF 3.2 03:50:30 10° SSE 03:54:21 86° WSW 03:58:16 10° NNW
CZ-2D R/B 2.3 03:49:57 10° NNE 03:55:27 75° ESE 04:00:23 13° S
Cosmos 1125 Rocket 3.4 03:50:55 10° NNW 03:56:10 82° WSW 04:01:21 10° SSE
Cosmos 1805 3.6 03:53:08 14° S 03:56:23 62° E 04:00:16 10° NNE
Cosmos 841 Rocket 3.5 03:53:14 20° SSW 03:56:59 81° WNW 04:02:18 10° NNE
Geosat 4.2 03:52:57 10° NNE 03:57:57 63° WNW 04:01:32 19° SW
Cosmos 1758 3.5 03:55:40 15° S 03:58:56 73° E 04:02:57 10° NNE
Cosmos 1092 Rocket 4.0 03:52:51 10° NNW 03:59:05 67° W 04:05:21 10° S
NOSS 3-4 (A) 4.3 03:53:52 10° NW 04:00:05 35° WSW 04:06:34 10° S
NOSS 3-4 (C) 4.3 03:53:58 10° NW 04:00:14 35° WSW 04:06:46 10° S
Cosmos 1544 4.3 03:56:53 10° SSE 04:00:18 39° E 04:03:45 10° NNE
USA 161 2.5 04:00:42 25° WSW 04:01:06 26° W 04:03:32 10° NW
Cosmos 2227 4.2 03:55:55 10° NNW 04:01:42 74° WSW 04:07:25 10° SSE
Cosmos 1763 Rocket 3.6 03:58:16 19° SW 04:01:57 66° WNW 04:07:07 10° NNE
Cosmos 1953 2.4 03:59:22 15° S 04:02:40 83° E 04:06:46 10° N
UNK 3.8 03:58:35 11° S 04:03:03 60° W 04:07:42 10° NNW
Cosmos 1500 Rocket 4.1 03:58:48 10° N 04:03:11 60° ENE 04:07:29 10° SSE
Cosmos 1743 Rocket 3.5 04:04:23 10° N 04:08:45 84° W 04:13:07 10° S
In-Cosmos 22 4.1 04:07:43 10° NNW 04:12:57 63° W 04:18:10 10° S
ARIANE 5 R/B 2.8 04:10:55 10° N 04:15:57 58° WNW 04:20:23 14° SSW
GEOS 3 Rocket 3.7 04:12:16 10° SSE 04:17:22 54° SW 04:22:26 10° NW
CZ-2C R/B 4.0 04:14:22 10° SSE 04:19:01 73° ENE 04:23:37 10° N
Cosmos 1697 Rocket 3.1 04:16:33 15° SW 04:21:08 51° WNW 04:26:41 10° NNE
Okean O Rocket 2.4 04:17:44 10° NNE 04:22:02 52° E 04:26:21 10° S
Abrixas 3.9 04:21:18 17° WSW 04:22:17 20° SW 04:24:37 10° SSE
Cosmos 1674 2.9 04:18:56 10° N 04:22:44 73° E 04:26:29 10° SSE
Cosmos-2242 3.1 04:20:15 13° SSW 04:24:00 58° WNW 04:28:15 10° N
Cosmos 540 Rocket 3.6 04:20:48 10° SSW 04:25:57 74° ESE 04:31:08 10° NNE
OE (NEXTSAT) 4.5 04:24:16 13° WSW 04:27:24 65° S 04:31:00 10° E
Cosmos 1980 Rocket 2.3 04:24:57 13° SW 04:30:02 67° WNW 04:35:44 10° NNE
Meteor 1-21 Rocket 4.5 04:24:40 10° NNW 04:30:28 58° W 04:36:15 10° S
Resurs 1-4 Rocket 2.3 04:25:35 10° N 04:30:45 56° WNW 04:35:52 10° SSW
Cosmos 2360 Rocket 4.4 04:26:54 10° SSE 04:31:03 22° E 04:35:15 10° NE
BREEZE-M DEB (TANK) 2.3 04:30:15 10° W 04:34:36 76° NNW 04:36:51 10° ENE
MOS 1-B 4.4 04:29:12 10° N 04:35:00 70° WNW 04:40:45 10° SSW
RESURS DK-1 2.6 04:33:47 10° NW 04:37:48 49° WSW 04:41:46 10° S
Cosmos 2322 Rocket 2.5 04:37:01 10° SSW 04:42:35 68° ESE 04:48:10 10° NNE
Cosmos 2279 Rocket 4.0 04:36:55 10° S 04:43:11 83° W 04:49:29 10° N
Milstar 3 Cent rocket 4.2 04:43:18 10° SSW 04:46:05 13° S 04:49:30 10° SSE
IRS-1D 4.3 04:41:51 10° N 04:46:18 34° WNW 04:50:45 10° SW
ATLAS CENTAUR R/B 3.3 04:43:09 10° W 04:47:25 27° NW 04:51:36 10° NNE
Thor Agena Rocket 3.5 04:42:26 10° SSE 04:47:29 89° WSW 04:52:35 10° NNW
Aureole 1 Rocket 4.4 04:44:33 10° SSW 04:50:47 90° ESE 04:58:48 10° NNE
Cosmos 1470 2.8 04:50:16 10° SSW 04:54:12 70° W 04:58:12 10° N
CZ-2D R/B 3.9 04:51:19 10° N 04:55:32 50° WNW 04:59:48 10° SSW
Lacrosse 5 3.3 04:50:54 10° NW 04:55:46 42° NNE 05:00:35 10° E
PSLV R/B 3.8 04:55:16 10° N 04:59:06 62° WNW 05:02:49 10° SSW
Cosmos 1842 Rocket 3.9 04:54:48 10° SSW 04:59:10 51° WNW 05:03:34 10° N
Cosmos 1461 3.9 04:57:26 10° WNW 05:00:45 24° WSW 05:03:58 10° SSW
